Klawock, AK

10:55 AM AKDT on March 27, 2017 (GMT -0800)
Klawock

Weather History for PAKW - December, 2011

Change the Weather History Date:

Sunday, December 11, 2011

  Actual Average Record
Temperature  
Mean Temperature 32 °F -  
Max Temperature 37 °F 38 °F 66 °F (2005)
Min Temperature 28 °F 30 °F 24 °F (2000)
Degree Days  
Heating Degree Days 32    
Moisture  
Dew Point 32 °F    
Average Humidity 96    
Maximum Humidity 100    
Minimum Humidity 86    
Precipitation  
Precipitation 0.04 in - - ()
Sea Level Pressure  
Sea Level Pressure 30.23 in    
Wind  
Wind Speed 1 mph (ESE)    
Max Wind Speed 8 mph    
Max Gust Speed -    
Visibility 9 miles    
Events Rain    
Averages and records for this station are not official NWS values.
T = Trace of Precipitation, MM = Missing Value Source: NWS Daily Summary

Daily Weather History Graph

Daily Weather History Graph

Search for Another Location

Airport or City:

Trip Planner

Search our weather history database for the weather conditions in past years. The results will help you decide how hot, cold, wet, or windy it might be!

Date:

Astronomy

Dec. 11, 2011 Rise Set
Actual Time 8:10 AM AKST 3:20 PM AKST
Civil Twilight 7:24 AM AKST 4:06 PM AKST
Nautical Twilight 6:36 AM AKST 4:54 PM AKST
Astronomical Twilight 5:51 AM AKST 5:39 PM AKST
Moon 4:39 PM AKST (12/11) 9:03 AM AKST (12/11)
Length of Visible Light 8h 41m
Length of Day
7h 09m
Full, 98% of the Moon is Illuminated
Dec 11
Full
Dec 17
Last Quarter
Dec 24
New
Dec 31
First Quarter
Jan 8
Full

Hourly Weather History & Observations

Time (AKST) Temp. Windchill Dew Point Humidity Pressure Visibility Wind Dir Wind Speed Gust Speed Precip Events Conditions
12:08 AM 28.4 °F - 28.4 °F 100% 30.24 in 10.0 mi Calm Calm - N/A   Partly Cloudy
12:53 AM 30.0 °F - 28.9 °F 96% 30.27 in 10.0 mi Calm Calm - N/A   Clear
1:21 AM 28.4 °F - 28.4 °F 100% 30.26 in 9.0 mi Calm Calm - N/A   Scattered Clouds
1:53 AM 28.0 °F - 27.0 °F 96% 30.27 in 4.0 mi Calm Calm - N/A   Scattered Clouds
2:31 AM 28.4 °F - 28.4 °F 100% 30.28 in 9.0 mi Calm Calm - N/A   Mostly Cloudy
3:53 AM 28.9 °F - 28.9 °F 100% 30.26 in 10.0 mi Calm Calm - N/A   Overcast
4:53 AM 30.0 °F - 30.0 °F 100% 30.28 in 10.0 mi Calm Calm - N/A   Overcast
5:53 AM 30.9 °F - 30.9 °F 100% 30.28 in 10.0 mi Calm Calm - N/A   Overcast
6:53 AM 30.9 °F - 30.9 °F 100% 30.29 in 10.0 mi Calm Calm - N/A   Overcast
7:08 AM 30.2 °F - 30.2 °F 100% 30.28 in 8.0 mi Calm Calm - N/A   Overcast
7:51 AM 32.0 °F - 30.2 °F 93% 30.29 in 2.5 mi Calm Calm - 0.00 in   Overcast
7:53 AM 32.0 °F - 30.9 °F 96% 30.30 in 2.5 mi Calm Calm - 0.00 in   Overcast
8:10 AM 32.0 °F - 32.0 °F 100% 30.30 in 2.0 mi Calm Calm - N/A   Overcast
8:17 AM 32.0 °F - 32.0 °F 100% 30.30 in 4.0 mi Calm Calm - N/A   Overcast
8:35 AM 32.0 °F - 32.0 °F 100% 30.30 in 1.8 mi Calm Calm - 0.00 in   Overcast
8:44 AM 32.0 °F - 32.0 °F 100% 30.30 in 3.0 mi Calm Calm - 0.00 in   Overcast
8:53 AM 32.0 °F - 32.0 °F 100% 30.30 in 5.0 mi Calm Calm - 0.00 in   Overcast
9:53 AM 32.0 °F - 32.0 °F 100% 30.31 in 10.0 mi Calm Calm - 0.00 in   Overcast
10:08 AM 32.0 °F - 32.0 °F 100% 30.31 in 10.0 mi Calm Calm - N/A   Overcast
10:45 AM 33.8 °F - 33.8 °F 100% 30.29 in 10.0 mi Calm Calm - N/A   Overcast
10:53 AM 33.1 °F - 33.1 °F 100% 30.29 in 10.0 mi Calm Calm - 0.01 in   Overcast
11:07 AM 33.8 °F - 33.8 °F 100% 30.29 in 10.0 mi Calm Calm - N/A   Overcast
11:53 AM 35.1 °F - 34.0 °F 96% 30.27 in 10.0 mi Calm Calm - N/A   Overcast
12:53 PM 36.0 °F - 35.1 °F 97% 30.27 in 10.0 mi Calm Calm - N/A   Overcast
1:53 PM 35.1 °F - 35.1 °F 100% 30.26 in 10.0 mi Calm Calm - N/A   Overcast
2:03 PM 35.6 °F - 35.6 °F 100% 30.24 in 10.0 mi Calm Calm - 0.00 in Rain Light Rain
2:11 PM 35.6 °F 32.8 °F 33.8 °F 93% 30.24 in 10.0 mi NNE 3.5 mph - 0.00 in Rain Light Rain
2:51 PM 33.8 °F - 33.8 °F 100% 30.23 in 10.0 mi Calm Calm - 0.01 in   Overcast
2:53 PM 34.0 °F - 34.0 °F 100% 30.23 in 10.0 mi Calm Calm - 0.01 in   Overcast
3:15 PM 33.8 °F 30.8 °F 33.8 °F 100% 30.23 in 10.0 mi Variable 3.5 mph - 0.00 in Rain Light Rain
3:53 PM 34.0 °F - 34.0 °F 100% 30.23 in 10.0 mi Calm Calm - 0.00 in   Overcast
4:10 PM 35.6 °F - 33.8 °F 93% 30.22 in 10.0 mi Calm Calm - N/A   Overcast
4:53 PM 36.0 °F - 34.0 °F 93% 30.21 in 10.0 mi Calm Calm - 0.00 in   Overcast
5:53 PM 36.0 °F 32.1 °F 34.0 °F 93% 30.21 in 10.0 mi Variable 4.6 mph - N/A   Overcast
6:53 PM 37.0 °F 32.4 °F 33.1 °F 86% 30.14 in 10.0 mi Variable 5.8 mph - 0.00 in   Overcast
7:00 PM 37.4 °F 31.4 °F 33.8 °F 87% 30.13 in 10.0 mi South 8.1 mph - N/A   Overcast
7:53 PM 37.0 °F 34.5 °F 33.1 °F 86% 30.14 in 10.0 mi Variable 3.5 mph - 0.00 in   Mostly Cloudy
8:53 PM 37.0 °F 33.3 °F 34.0 °F 89% 30.13 in 10.0 mi Variable 4.6 mph - 0.00 in   Overcast
9:53 PM 37.0 °F 33.3 °F 34.0 °F 89% 30.11 in 10.0 mi Variable 4.6 mph - 0.00 in Rain Light Rain
10:44 PM 37.4 °F 32.1 °F 33.8 °F 87% 30.10 in 10.0 mi Variable 6.9 mph - 0.00 in Rain Light Rain
10:53 PM 37.0 °F 32.4 °F 34.0 °F 89% 30.10 in 10.0 mi Variable 5.8 mph - 0.00 in Rain Light Rain
11:36 PM 35.6 °F 30.7 °F 33.8 °F 93% 30.06 in 10.0 mi Variable 5.8 mph - 0.02 in Rain Light Rain
11:53 PM 36.0 °F 30.3 °F 34.0 °F 93% 30.06 in 10.0 mi Variable 6.9 mph - 0.02 in Rain Light Rain